Location: Utrecht
(52.0917°N, 5.1178°E)
Time: 13:39:53
(UTC+02:00)

OTV 5 (USA 277) - Visible Passes

Search period start: 16 June 2019 00:00
Search period end: 26 June 2019 00:00
Orbit: 310 x 325 km, 54.5° (Epoch: 08 May)

Date Brightness Start Highest point End Pass type
(mag) Time Alt. Az. Time Alt. Az. Time Alt. Az.
16 Jun ? 01:41:25 21° ESE 01:41:25 21° ESE 01:43:00 10° E visible
16 Jun ? 03:12:16 12° WSW 03:14:50 77° NNW 03:17:36 10° ENE visible
17 Jun ? 01:54:57 41° S 01:55:19 45° SSE 01:57:59 10° ENE visible
17 Jun ? 03:26:54 10° W 03:29:38 54° N 03:32:22 10° ENE visible
18 Jun ? 00:37:29 12° ESE 00:37:29 12° ESE 00:37:55 10° E visible
18 Jun ? 02:08:19 21° WSW 02:10:01 84° SSE 02:12:47 10° ENE visible
18 Jun ? 03:41:47 10° WNW 03:44:29 47° N 03:47:11 10° ENE visible
19 Jun ? 00:50:36 32° SE 00:50:36 32° SE 00:53:05 10° E visible
19 Jun ? 02:22:01 10° W 02:24:47 63° NNW 02:27:32 10° ENE visible
19 Jun ? 03:56:37 10° WNW 03:59:20 50° N 04:02:03 10° E visible
19 Jun ? 23:32:23 10° ESE 23:32:23 10° ESE 23:32:30 10° ESE visible
20 Jun ? 01:03:08 16° SW 01:05:12 63° SSE 01:07:57 10° ENE visible
20 Jun ? 02:36:53 10° W 02:39:36 49° N 02:42:19 10° ENE visible
20 Jun ? 04:11:24 10° WNW 04:14:10 65° NNE 04:16:54 10° E visible
20 Jun ? 23:43:31 10° SSW 23:45:48 23° SE 23:48:07 10° E visible
21 Jun ? 01:17:10 10° WSW 01:19:56 77° NNW 01:22:43 10° ENE visible
21 Jun ? 02:51:45 10° WNW 02:54:28 47° N 02:57:09 10° E visible
21 Jun ? 04:26:09 10° WNW 04:28:56 79° SSW 04:31:41 10° ESE visible
21 Jun ? 23:57:44 10° SW 00:00:24 45° SSE 00:03:05 10° ENE visible
22 Jun ? 01:32:00 10° W 01:34:44 54° N 01:37:28 10° ENE visible
22 Jun ? 03:06:34 10° WNW 03:09:18 56° N 03:12:02 10° E visible
23 Jun ? 00:12:19 10° WSW 00:15:06 84° SSE 00:17:53 10° ENE visible
23 Jun ? 01:46:52 10° WNW 01:49:35 47° N 01:52:17 10° ENE visible
23 Jun ? 03:21:19 10° WNW 03:24:06 81° NNE 03:26:52 10° ESE visible
23 Jun ? 22:53:06 10° SSW 22:55:39 32° SSE 22:58:11 10° E visible
24 Jun ? 00:27:07 10° W 00:29:52 63° NNW 00:32:38 10° ENE visible
24 Jun ? 02:01:42 10° WNW 02:04:26 50° N 02:07:08 10° E visible
24 Jun ? 03:36:05 10° WNW 03:38:50 58° SSW 03:41:33 10° SE visible
24 Jun ? 23:07:32 10° WSW 23:10:18 63° SSE 23:13:02 10° ENE visible
25 Jun ? 00:41:59 10° W 00:44:42 49° N 00:47:25 10° ENE visible
25 Jun ? 02:16:29 10° WNW 02:19:15 66° NNE 02:22:01 10° E visible
25 Jun ? 03:50:59 10° W 03:53:28 30° SW 03:55:56 10° SSE visible
25 Jun ? 23:22:15 10° WSW 23:25:01 77° NNW 23:27:48 10° ENE visible
